TimeCDT,TemperatureF,Dew PointF,Humidity,Sea Level PressureIn,VisibilityMPH,Wind Direction,Wind SpeedMPH,Gust SpeedMPH,PrecipitationIn,Events,Conditions,WindDirDegrees,DateUTC
12:14 AM,64.4,51.8,64,30.02,10.0,SE,8.1,-,N/A,,Clear,140,2013-06-14 05:14:00
12:34 AM,64.4,53.6,68,30.02,10.0,SE,8.1,-,N/A,,Clear,130,2013-06-14 05:34:00
12:55 AM,64.4,53.6,68,30.02,10.0,SE,9.2,-,N/A,,Clear,140,2013-06-14 05:55:00
1:14 AM,64.4,53.6,68,30.02,10.0,SE,9.2,-,N/A,,Clear,140,2013-06-14 06:14:00
1:34 AM,64.4,53.6,68,30.02,10.0,SSE,9.2,-,N/A,,Clear,150,2013-06-14 06:34:00
1:55 AM,64.4,53.6,68,30.02,10.0,SSE,10.4,-,N/A,,Clear,150,2013-06-14 06:55:00
2:14 AM,64.4,53.6,68,30.01,10.0,SSE,9.2,-,N/A,,Clear,150,2013-06-14 07:14:00
2:35 AM,64.4,53.6,68,30.00,10.0,SE,9.2,-,N/A,,Clear,140,2013-06-14 07:35:00
2:55 AM,64.4,53.6,68,29.99,10.0,SSE,9.2,-,N/A,,Clear,150,2013-06-14 07:55:00
3:14 AM,64.4,53.6,68,29.99,10.0,SSE,9.2,-,N/A,,Clear,150,2013-06-14 08:14:00
3:35 AM,64.4,53.6,68,29.99,10.0,SSE,10.4,-,N/A,,Clear,150,2013-06-14 08:35:00
3:55 AM,64.4,53.6,68,29.98,10.0,SSE,9.2,-,N/A,,Clear,150,2013-06-14 08:55:00
4:14 AM,62.6,53.6,72,29.98,10.0,SSE,9.2,-,N/A,,Clear,150,2013-06-14 09:14:00
4:35 AM,62.6,53.6,72,29.98,10.0,SE,9.2,-,N/A,,Clear,140,2013-06-14 09:35:00
4:55 AM,62.6,53.6,72,29.97,10.0,SSE,10.4,-,N/A,,Clear,150,2013-06-14 09:55:00
5:14 AM,62.6,53.6,72,29.97,10.0,SE,10.4,-,N/A,,Clear,140,2013-06-14 10:14:00
5:35 AM,62.6,53.6,72,29.97,10.0,SE,11.5,-,N/A,,Clear,140,2013-06-14 10:35:00
5:55 AM,62.6,53.6,72,29.97,10.0,SE,10.4,-,N/A,,Clear,140,2013-06-14 10:55:00
6:14 AM,62.6,53.6,72,29.97,10.0,SSE,10.4,-,N/A,,Clear,150,2013-06-14 11:14:00
6:35 AM,62.6,53.6,72,29.98,10.0,SSE,10.4,-,N/A,,Clear,150,2013-06-14 11:35:00
6:55 AM,64.4,53.6,68,29.99,10.0,SSE,9.2,-,N/A,,Clear,150,2013-06-14 11:55:00
7:14 AM,64.4,53.6,68,30.00,10.0,SSE,10.4,-,N/A,,Clear,150,2013-06-14 12:14:00
7:35 AM,64.4,53.6,68,30.01,10.0,SSE,10.4,-,N/A,,Clear,150,2013-06-14 12:35:00
7:55 AM,66.2,53.6,64,29.99,10.0,SSE,10.4,-,N/A,,Clear,150,2013-06-14 12:55:00
8:14 AM,68.0,53.6,60,29.99,10.0,SSE,15.0,-,N/A,,Clear,150,2013-06-14 13:14:00
8:35 AM,69.8,53.6,56,29.99,10.0,SSE,18.4,21.9,N/A,,Clear,160,2013-06-14 13:35:00
8:55 AM,69.8,53.6,56,29.98,10.0,SSE,18.4,-,N/A,,Clear,160,2013-06-14 13:55:00
9:14 AM,71.6,53.6,53,29.98,10.0,SSE,17.3,-,N/A,,Clear,160,2013-06-14 14:14:00
9:35 AM,71.6,53.6,53,29.97,10.0,South,17.3,-,N/A,,Clear,170,2013-06-14 14:35:00
9:54 AM,73.4,55.4,53,29.96,10.0,South,17.3,23.0,N/A,,Clear,170,2013-06-14 14:54:00
10:14 AM,71.6,55.4,57,29.97,10.0,South,16.1,20.7,N/A,,Mostly Cloudy,170,2013-06-14 15:14:00
10:35 AM,71.6,55.4,57,29.97,10.0,SSE,12.7,-,N/A,,Overcast,160,2013-06-14 15:35:00
10:54 AM,71.6,55.4,57,29.96,10.0,SSE,12.7,-,N/A,,Mostly Cloudy,160,2013-06-14 15:54:00
11:14 AM,71.6,55.4,57,29.94,10.0,SSE,12.7,-,N/A,Rain,Light Rain,160,2013-06-14 16:14:00
11:35 AM,73.4,55.4,53,29.92,10.0,SSE,16.1,20.7,N/A,,Clear,160,2013-06-14 16:35:00
11:54 AM,73.4,55.4,53,29.89,10.0,SSE,23.0,26.5,N/A,,Clear,160,2013-06-14 16:54:00
12:15 PM,75.2,55.4,50,29.85,10.0,SSE,23.0,31.1,N/A,,Clear,160,2013-06-14 17:15:00
12:35 PM,73.4,55.4,53,29.83,10.0,SSE,26.5,31.1,N/A,,Clear,150,2013-06-14 17:35:00
12:54 PM,71.6,57.2,60,29.82,10.0,SSE,24.2,28.8,N/A,,Clear,150,2013-06-14 17:54:00
1:15 PM,71.6,57.2,60,29.85,10.0,SSE,11.5,-,N/A,,Clear,150,2013-06-14 18:15:00
1:34 PM,73.4,57.2,57,29.87,10.0,SSE,10.4,-,N/A,,Clear,150,2013-06-14 18:34:00
1:54 PM,75.2,57.2,53,29.88,10.0,SSE,18.4,-,N/A,,Clear,150,2013-06-14 18:54:00
2:14 PM,75.2,57.2,53,29.88,10.0,SSE,13.8,-,N/A,,Scattered Clouds,160,2013-06-14 19:14:00
2:34 PM,80.6,55.4,42,29.87,10.0,SSE,21.9,26.5,N/A,,Scattered Clouds,160,2013-06-14 19:34:00
2:55 PM,80.6,55.4,42,29.85,10.0,South,18.4,25.3,N/A,,Clear,180,2013-06-14 19:55:00
3:14 PM,78.8,55.4,44,29.86,10.0,South,18.4,23.0,N/A,,Scattered Clouds,170,2013-06-14 20:14:00
3:34 PM,78.8,57.2,47,29.85,10.0,South,18.4,-,N/A,,Mostly Cloudy,180,2013-06-14 20:34:00
3:55 PM,80.6,57.2,45,29.85,10.0,South,16.1,21.9,N/A,,Scattered Clouds,190,2013-06-14 20:55:00
4:14 PM,78.8,57.2,47,29.84,10.0,South,20.7,24.2,N/A,,Scattered Clouds,170,2013-06-14 21:14:00
4:35 PM,80.6,57.2,45,29.82,10.0,South,18.4,21.9,N/A,,Mostly Cloudy,170,2013-06-14 21:35:00
4:55 PM,80.6,57.2,45,29.82,10.0,SSE,18.4,25.3,N/A,,Scattered Clouds,160,2013-06-14 21:55:00
5:14 PM,78.8,57.2,47,29.82,10.0,South,18.4,24.2,N/A,,Mostly Cloudy,170,2013-06-14 22:14:00
5:35 PM,78.8,57.2,47,29.82,10.0,SSE,18.4,-,N/A,,Mostly Cloudy,160,2013-06-14 22:35:00
5:54 PM,77.0,57.2,50,29.81,10.0,SSE,18.4,-,N/A,,Mostly Cloudy,150,2013-06-14 22:54:00
6:14 PM,77.0,59.0,54,29.81,10.0,SSE,15.0,23.0,N/A,,Mostly Cloudy,150,2013-06-14 23:14:00
6:35 PM,77.0,59.0,54,29.80,10.0,SE,15.0,19.6,N/A,,Mostly Cloudy,140,2013-06-14 23:35:00
6:54 PM,75.2,59.0,57,29.80,10.0,SE,13.8,18.4,N/A,,Overcast,140,2013-06-14 23:54:00
7:14 PM,75.2,59.0,57,29.79,10.0,SE,12.7,-,N/A,,Overcast,140,2013-06-15 00:14:00
7:35 PM,77.0,60.8,57,29.78,10.0,SE,15.0,-,N/A,,Mostly Cloudy,140,2013-06-15 00:35:00
7:54 PM,75.2,60.8,61,29.78,10.0,SSE,13.8,-,N/A,,Mostly Cloudy,150,2013-06-15 00:54:00
8:14 PM,75.2,60.8,61,29.78,10.0,SSE,13.8,-,N/A,,Overcast,150,2013-06-15 01:14:00
8:35 PM,75.2,60.8,61,29.78,10.0,SSE,11.5,-,N/A,,Overcast,150,2013-06-15 01:35:00
8:54 PM,75.2,60.8,61,29.78,10.0,SSE,11.5,-,N/A,,Overcast,150,2013-06-15 01:54:00
9:14 PM,73.4,60.8,65,29.78,10.0,South,10.4,-,N/A,,Light Drizzle,170,2013-06-15 02:14:00
9:35 PM,71.6,62.6,73,29.79,10.0,SSE,8.1,-,0.01,Rain,Light Rain,160,2013-06-15 02:35:00
9:54 PM,69.8,64.4,83,29.79,10.0,SSE,6.9,-,N/A,,Overcast,160,2013-06-15 02:54:00
10:14 PM,69.8,64.4,83,29.79,10.0,SSE,5.8,-,N/A,Rain,Light Rain,160,2013-06-15 03:14:00
10:35 PM,69.8,64.4,83,29.80,10.0,SSE,6.9,-,N/A,,Overcast,160,2013-06-15 03:35:00
10:54 PM,69.8,64.4,83,29.81,10.0,Calm,Calm,-,N/A,,Overcast,0,2013-06-15 03:54:00
11:15 PM,71.6,64.4,78,29.82,10.0,WSW,4.6,-,N/A,,Overcast,240,2013-06-15 04:15:00
11:35 PM,69.8,64.4,83,29.82,10.0,Calm,Calm,-,N/A,,Overcast,0,2013-06-15 04:35:00
11:54 PM,69.8,64.4,83,29.81,10.0,South,3.5,-,N/A,,Overcast,190,2013-06-15 04:54:00